Location: *
(40.9167°N, 9.5000°E)
Time: 21:22:25
(UTC+00:00)

Cosmos 1825 Rocket - Pass Details

Date: 09 April 2020
Orbit: 603 x 631 km, 82.5° (Epoch: 31 May)

Event Time Altitude Azimuth Distance (km) Brightness Sun altitude
Rises 19:04:41 0° 347° (NNW) 2,897 7.6 -13.3°
Reaches altitude 10° 19:06:58 10° 342° (NNW) 1,982 6.7 -13.7°
Maximum altitude 19:11:13 52° 267° (W) 763 4.4 -14.4°
Drops below altitude 10° 19:15:25 10° 191° (S) 1,952 6.0 -15.1°
Sets 19:17:39 0° 186° (S) 2,847 6.8 -15.5°
